Notices

What's New in latest Release from April 7th, 2021:

- Updated Glossary, including Speed of Maximum Gust, and Total Hourly Precipitation

- Updated national and regional climate services offices contacts and prices information

- Addition of station inventory lists for 1981-2010, 1971-2000, and 1961-1990 Normals.

If you haven't already, please take our survey and provide feedback about our website: https://eccc.sondage-survey.ca/f/LanguageSelection.aspx?s=442ca660-fcf1-47c0-95a9-59707d6fd709

Hourly Data Report for August 09, 2003

TORONTO CITY
ONTARIO

43°40'00.000" N
79°24'00.000" W
112.50 m
6158355
71508
XTO

Download Data

Hourly Data (August 2003)
Hourly Data Report for August 9, 2003
TIME
LST
Temp Definition
°C
Dew Point Definition
°C
Rel Hum Definition
%
Precip. Amount Definition
mm

Wind Dir Definition
10's deg

Wind Spd Definition
km/h
Visibility Definition
km
Stn Press Definition
kPa
Hmdx Definition


Wind Chill Definition


Weather Definition


00:00 21.3 16.9 76   LegendMM LegendMM LegendMM 100.07 27   LegendNANA
01:00 21.1 16.3 74   LegendMM LegendMM LegendMM 100.06 26   LegendNANA
02:00 20.8 16.1 74   LegendMM LegendMM LegendMM 100.07 25   LegendNANA
03:00 20.8 16.4 76   LegendMM LegendMM LegendMM 100.06 26   LegendNANA
04:00 20.6 16.8 79   LegendMM LegendMM LegendMM 100.07 26   LegendNANA
05:00 20.2 17.6 85   LegendMM LegendMM LegendMM 100.09 26   LegendNANA
06:00 20.4 17.6 84   LegendMM LegendMM LegendMM 100.15 26   LegendNANA
07:00 20.8 18.2 85   LegendMM LegendMM LegendMM 100.17 27   LegendNANA
08:00 21.4 18.7 85   LegendMM LegendMM LegendMM 100.19 28   LegendNANA
09:00 22.1 19.3 84   LegendMM LegendMM LegendMM 100.21 29   LegendNANA
10:00 23.1 19.8 82   LegendMM LegendMM LegendMM 100.20 31   LegendNANA
11:00 24.6 20.5 78   LegendMM LegendMM LegendMM 100.18 33   LegendNANA
12:00 25.2 20.0 73   LegendMM LegendMM LegendMM 100.18 33   LegendNANA
13:00 24.8 19.8 74   LegendMM LegendMM LegendMM 100.17 32   LegendNANA
14:00 26.2 19.0 65   LegendMM LegendMM LegendMM 100.11 33   LegendNANA
15:00 25.9 19.4 67   LegendMM LegendMM LegendMM 100.06 33   LegendNANA
16:00 26.1 18.3 62   LegendMM LegendMM LegendMM 100.01 32   LegendNANA
17:00 24.9 18.6 68   LegendMM LegendMM LegendMM 100.02 31   LegendNANA
18:00 24.5 19.1 72   LegendMM LegendMM LegendMM 99.99 31   LegendNANA
19:00 23.9 18.8 73   LegendMM LegendMM LegendMM 100.04 31   LegendNANA
20:00 23.8 18.3 71   LegendMM LegendMM LegendMM 100.02 30   LegendNANA
21:00 22.6 18.6 78   LegendMM LegendMM LegendMM 100.10 29   LegendNANA
22:00 23.1 19.5 80   LegendMM LegendMM LegendMM 100.06 30   LegendNANA
23:00 23.4 19.6 79   LegendMM LegendMM LegendMM 100.04 31   LegendNANA

Notes on Data Quality.

Legend

  • E = Estimated
  • M = Missing
  • NA = Not Available*
  • [empty] = Indicates an unobserved value
Date modified: